TimeEST,TemperatureF,Dew PointF,Humidity,Sea Level PressureIn,VisibilityMPH,Wind Direction,Wind SpeedMPH,Gust SpeedMPH,PrecipitationIn,Events,Conditions,WindDirDegrees,DateUTC
12:51 AM,35.1,19.0,52,30.18,10.0,NW,10.4,-,N/A,,Overcast,310,2012-12-12 05:51:00
1:51 AM,34.0,19.0,54,30.20,10.0,Variable,5.8,-,N/A,,Overcast,0,2012-12-12 06:51:00
2:51 AM,33.1,19.9,59,30.22,10.0,NNW,5.8,-,N/A,,Overcast,330,2012-12-12 07:51:00
3:51 AM,32.0,19.9,61,30.23,10.0,NW,4.6,-,N/A,,Mostly Cloudy,310,2012-12-12 08:51:00
4:51 AM,32.0,19.9,61,30.27,10.0,NW,5.8,-,N/A,,Mostly Cloudy,320,2012-12-12 09:51:00
5:51 AM,30.0,19.9,66,30.29,10.0,NW,3.5,-,N/A,,Mostly Cloudy,310,2012-12-12 10:51:00
6:51 AM,30.9,19.9,64,30.32,10.0,WNW,4.6,-,N/A,,Mostly Cloudy,300,2012-12-12 11:51:00
7:51 AM,30.9,21.0,67,30.35,10.0,Calm,Calm,-,N/A,,Mostly Cloudy,0,2012-12-12 12:51:00
8:51 AM,35.1,21.0,57,30.36,10.0,North,6.9,-,N/A,,Mostly Cloudy,360,2012-12-12 13:51:00
9:51 AM,36.0,19.9,52,30.38,10.0,North,9.2,-,N/A,,Mostly Cloudy,10,2012-12-12 14:51:00
10:51 AM,39.0,21.0,49,30.37,10.0,NNW,4.6,-,N/A,,Mostly Cloudy,340,2012-12-12 15:51:00
11:51 AM,39.0,19.9,46,30.36,10.0,NNW,8.1,-,N/A,,Mostly Cloudy,340,2012-12-12 16:51:00
12:51 PM,41.0,19.9,43,30.35,10.0,NNW,6.9,-,N/A,,Mostly Cloudy,340,2012-12-12 17:51:00
1:51 PM,41.0,19.9,43,30.34,10.0,NNW,3.5,-,N/A,,Mostly Cloudy,340,2012-12-12 18:51:00
2:51 PM,39.9,19.0,43,30.35,10.0,Calm,Calm,-,N/A,,Mostly Cloudy,0,2012-12-12 19:51:00
3:51 PM,39.9,19.9,45,30.37,10.0,West,3.5,-,N/A,,Mostly Cloudy,280,2012-12-12 20:51:00
4:51 PM,39.0,19.9,46,30.38,10.0,WNW,3.5,-,N/A,,Mostly Cloudy,300,2012-12-12 21:51:00
5:51 PM,37.0,21.0,52,30.39,10.0,West,3.5,-,N/A,,Mostly Cloudy,270,2012-12-12 22:51:00
6:51 PM,36.0,21.9,57,30.41,10.0,Calm,Calm,-,N/A,,Overcast,0,2012-12-12 23:51:00
7:51 PM,36.0,21.9,57,30.40,10.0,WNW,3.5,-,N/A,,Mostly Cloudy,290,2012-12-13 00:51:00
8:51 PM,35.6,23.0,60,30.40,10.0,West,3.5,-,N/A,,Partly Cloudy,280,2012-12-13 01:51:00
9:51 PM,34.0,23.0,64,30.44,10.0,Calm,Calm,-,N/A,,Mostly Cloudy,0,2012-12-13 02:51:00
10:51 PM,33.8,23.0,65,30.42,10.0,Calm,Calm,-,N/A,,Overcast,0,2012-12-13 03:51:00
11:51 PM,32.0,23.0,69,30.43,10.0,North,3.5,-,N/A,,Overcast,360,2012-12-13 04:51:00